EDW2A EDDF-EDDS

Flight info

Callsign EDW2A
Flight time N/A
Altitude 13000
Route ANEKI2L/18 ANEKI Y163 NEKLO Y171 INKAM N850 KRH T128 BADSO BADSO2A
Aircraft A320/M-SDE3FGHIRWY/LB1

Departure

Time 2026-05-05 17:03
Airport Frankfurt Main Airport (EDDF)

Arrival

Time N/A
Airport Stuttgart Airport (EDDS)
Time Latitude Longitude Altitude Speed Heading
2026-05-05 16:31 50.04978 8.59151 362 ft 0 kts 160°
2026-05-05 16:43 50.04981 8.59150 362 ft 3 kts 160°
2026-05-05 16:43 50.05006 8.59136 364 ft 4 kts 160°
2026-05-05 16:43 50.05027 8.59120 360 ft 4 kts 117°
2026-05-05 16:44 50.05028 8.59088 360 ft 2 kts 70°
2026-05-05 16:44 50.05023 8.59068 363 ft 0 kts 70°
2026-05-05 16:48 50.05024 8.59071 362 ft 0 kts 70°
2026-05-05 16:48 50.05027 8.59085 360 ft 5 kts 70°
2026-05-05 16:48 50.05037 8.59127 365 ft 3 kts 69°
2026-05-05 16:49 50.05045 8.59159 361 ft 6 kts 69°
2026-05-05 16:49 50.05053 8.59267 361 ft 12 kts 109°
2026-05-05 16:49 50.04996 8.59338 366 ft 10 kts 155°
2026-05-05 16:49 50.04941 8.59372 371 ft 7 kts 154°
2026-05-05 16:50 50.04900 8.59411 370 ft 2 kts 147°
2026-05-05 16:50 50.04886 8.59424 369 ft 5 kts 148°
2026-05-05 16:50 50.04850 8.59468 370 ft 7 kts 138°
2026-05-05 16:50 50.04842 8.59479 370 ft 0 kts 138°
2026-05-05 16:51 50.04832 8.59493 370 ft 6 kts 138°
2026-05-05 16:51 50.04771 8.59569 372 ft 15 kts 146°
2026-05-05 16:51 50.04672 8.59612 374 ft 19 kts 172°
2026-05-05 16:51 50.04514 8.59625 376 ft 27 kts 178°
2026-05-05 16:52 50.04324 8.59636 376 ft 29 kts 179°
2026-05-05 16:52 50.04128 8.59591 375 ft 26 kts 199°
2026-05-05 16:52 50.03966 8.59466 373 ft 27 kts 219°
2026-05-05 16:52 50.03853 8.59214 367 ft 29 kts 248°
2026-05-05 16:53 50.03785 8.58917 365 ft 31 kts 250°
2026-05-05 16:53 50.03706 8.58587 362 ft 32 kts 249°
2026-05-05 16:53 50.03633 8.58284 361 ft 29 kts 249°
2026-05-05 16:53 50.03566 8.58003 362 ft 28 kts 250°
2026-05-05 16:54 50.03500 8.57725 360 ft 28 kts 250°
2026-05-05 16:54 50.03437 8.57465 356 ft 25 kts 249°
2026-05-05 16:54 50.03377 8.57217 355 ft 24 kts 249°
2026-05-05 16:54 50.03321 8.56981 355 ft 23 kts 250°
2026-05-05 16:55 50.03296 8.56883 357 ft 0 kts 246°
2026-05-05 16:55 50.03295 8.56879 356 ft 0 kts 246°
2026-05-05 16:55 50.03293 8.56874 355 ft 1 kts 244°
2026-05-05 16:55 50.03289 8.56862 356 ft 2 kts 243°
2026-05-05 16:56 50.03288 8.56859 356 ft 0 kts 243°
2026-05-05 16:56 50.03287 8.56855 356 ft 0 kts 242°
2026-05-05 16:57 50.03284 8.56839 357 ft 6 kts 258°
2026-05-05 16:57 50.03339 8.56759 350 ft 13 kts 305°
2026-05-05 16:57 50.03327 8.56619 354 ft 17 kts 248°
2026-05-05 16:57 50.03279 8.56410 351 ft 24 kts 249°
2026-05-05 16:58 50.03213 8.56136 354 ft 27 kts 249°
2026-05-05 16:58 50.03150 8.55871 347 ft 26 kts 249°
2026-05-05 16:58 50.03083 8.55589 348 ft 29 kts 248°
2026-05-05 16:58 50.03013 8.55300 344 ft 29 kts 250°
2026-05-05 16:59 50.02943 8.55009 337 ft 28 kts 249°
2026-05-05 16:59 50.02878 8.54734 338 ft 26 kts 249°
2026-05-05 16:59 50.02819 8.54480 339 ft 24 kts 251°
2026-05-05 16:59 50.02760 8.54230 338 ft 25 kts 248°
2026-05-05 17:00 50.02697 8.53982 335 ft 25 kts 250°
2026-05-05 17:00 50.02639 8.53743 332 ft 14 kts 249°
2026-05-05 17:00 50.02618 8.53657 334 ft 9 kts 249°
2026-05-05 17:00 50.02586 8.53578 336 ft 9 kts 210°
2026-05-05 17:01 50.02500 8.53501 336 ft 24 kts 251°
2026-05-05 17:01 50.02442 8.53266 336 ft 22 kts 252°
2026-05-05 17:01 50.02388 8.53024 334 ft 26 kts 250°
2026-05-05 17:01 50.02321 8.52759 331 ft 18 kts 249°
2026-05-05 17:02 50.02286 8.52610 331 ft 9 kts 215°
2026-05-05 17:02 50.02255 8.52606 334 ft 13 kts 184°
2026-05-05 17:02 50.01856 8.52607 334 ft 101 kts 180°
2026-05-05 17:02 50.00887 8.52615 379 ft 170 kts 182°
2026-05-05 17:03 49.99705 8.52652 1295 ft 171 kts 180°
2026-05-05 17:03 49.98499 8.52755 2082 ft 186 kts 179°
2026-05-05 17:03 49.97124 8.52859 2498 ft 210 kts 180°
2026-05-05 17:03 49.95614 8.52961 3157 ft 222 kts 180°
2026-05-05 17:04 49.94056 8.53065 4035 ft 226 kts 179°
2026-05-05 17:04 49.92476 8.53172 4953 ft 228 kts 180°
2026-05-05 17:04 49.90882 8.53281 5851 ft 231 kts 179°
2026-05-05 17:04 49.89258 8.53396 6532 ft 237 kts 179°
2026-05-05 17:05 49.87616 8.53513 6760 ft 237 kts 178°
2026-05-05 17:05 49.85973 8.53626 6821 ft 234 kts 179°
2026-05-05 17:05 49.84344 8.53734 6827 ft 234 kts 179°
2026-05-05 17:05 49.82702 8.53842 7429 ft 237 kts 178°
2026-05-05 17:06 49.81086 8.53951 8331 ft 238 kts 178°
2026-05-05 17:06 49.79417 8.54063 9211 ft 240 kts 178°
2026-05-05 17:06 49.77735 8.54103 9991 ft 247 kts 184°
2026-05-05 17:06 49.75940 8.53886 10335 ft 270 kts 185°
2026-05-05 17:07 49.73983 8.53623 10632 ft 294 kts 185°
2026-05-05 17:07 49.71863 8.53331 10901 ft 318 kts 185°
2026-05-05 17:07 49.69598 8.53022 11357 ft 332 kts 185°
2026-05-05 17:07 49.67274 8.52707 12088 ft 338 kts 185°
2026-05-05 17:08 49.64922 8.52396 12649 ft 342 kts 185°
2026-05-05 17:08 49.62549 8.52081 12808 ft 343 kts 185°
2026-05-05 17:08 49.60101 8.51757 12838 ft 360 kts 185°
2026-05-05 17:08 49.57691 8.51932 12837 ft 347 kts 167°
2026-05-05 17:09 49.55506 8.53426 12839 ft 347 kts 146°
2026-05-05 17:09 49.53741 8.55981 12839 ft 349 kts 134°
2026-05-05 17:09 49.52056 8.58830 12840 ft 371 kts 134°
2026-05-05 17:09 49.50305 8.61812 12840 ft 378 kts 134°
2026-05-05 17:10 49.48537 8.64823 12839 ft 380 kts 134°
2026-05-05 17:10 49.46760 8.67848 12841 ft 381 kts 134°
2026-05-05 17:10 49.44987 8.70862 12836 ft 381 kts 134°
2026-05-05 17:10 49.43235 8.73844 12831 ft 381 kts 134°
2026-05-05 17:11 49.41457 8.76863 12837 ft 382 kts 134°
2026-05-05 17:11 49.39678 8.79911 12833 ft 384 kts 134°
2026-05-05 17:11 49.37897 8.82983 12828 ft 385 kts 134°
2026-05-05 17:11 49.36120 8.86047 12800 ft 384 kts 134°
2026-05-05 17:12 49.34359 8.89087 12156 ft 382 kts 134°
2026-05-05 17:12 49.32582 8.92150 11883 ft 385 kts 134°
2026-05-05 17:12 49.31051 8.94806 11808 ft 385 kts 134°
2026-05-05 17:12 49.29276 8.97896 11833 ft 386 kts 134°
2026-05-05 17:13 49.27506 9.00977 11832 ft 386 kts 134°
2026-05-05 17:13 49.25757 9.04020 11833 ft 386 kts 134°
2026-05-05 17:13 49.23986 9.07100 11833 ft 386 kts 134°
2026-05-05 17:13 49.22216 9.10177 11710 ft 383 kts 134°
2026-05-05 17:14 49.20463 9.13227 10870 ft 383 kts 134°
2026-05-05 17:14 49.18726 9.16250 10514 ft 365 kts 134°
2026-05-05 17:14 49.17125 9.19054 10197 ft 338 kts 134°
2026-05-05 17:14 49.15650 9.21659 10060 ft 310 kts 134°
2026-05-05 17:15 49.14301 9.24085 9797 ft 292 kts 134°
2026-05-05 17:15 49.13031 9.26397 9221 ft 285 kts 134°
2026-05-05 17:15 49.11767 9.28699 8548 ft 281 kts 134°
2026-05-05 17:15 49.10513 9.30972 7865 ft 279 kts 134°
2026-05-05 17:16 49.09268 9.33235 7162 ft 278 kts 134°
2026-05-05 17:16 49.08021 9.35493 6679 ft 278 kts 134°
2026-05-05 17:16 49.06779 9.37736 6325 ft 276 kts 134°
2026-05-05 17:16 49.05539 9.39963 5943 ft 275 kts 134°
2026-05-05 17:17 49.04315 9.42164 5966 ft 273 kts 134°
2026-05-05 17:17 49.03089 9.44379 5995 ft 274 kts 134°